Location: Audrecelles
(50.8240°N, 1.5923°E)
Time: 03:28:47
(UTC+00:00)

Cosmos 44 - Pass Details

Date: 14 October 2025
Orbit: 576 x 774 km, 65.1° (Epoch: 13 November)

Event Time Altitude Azimuth Distance (km) Brightness Sun altitude
Exits shadow 02:05:17 14° 13° (NNE) 1,879 6.0 -37.9°
Drops below altitude 10° 02:06:54 10° 31° (NNE) 2,171 6.5 -37.7°
Sets 02:10:16 0° 54° (NE) 3,135 7.6 -37.3°
